| time (UTC) | temp C | wind direction | speed KPH | gust KPH | rain 1hr cm | rain 24hr cm | rain mn cm | humidity % | barometer mb |
| 20260502202817 | 20 | 161 | 14.5 | 19.3 | 0.00 | 0.00 | 0.00 | 17 | 1022.6 |
| 20260502201817 | 20 | 109 | 3.2 | 14.5 | 0.00 | 0.00 | 0.00 | 17 | 1022.4 |
| 20260502200817 | 20 | 69 | 3.2 | 11.3 | 0.00 | 0.00 | 0.00 | 18 | 1023.0 |
| 20260502195816 | 19 | 100 | 8.0 | 14.5 | 0.00 | 0.00 | 0.00 | 20 | 1023.1 |
| 20260502194817 | 19 | 202 | 4.8 | 12.9 | 0.00 | 0.00 | 0.00 | 19 | 1023.3 |
| 20260502193816 | 18 | 165 | 1.6 | 4.8 | 0.00 | 0.00 | 0.00 | 21 | 1023.1 |
| 20260502192817 | 18 | 103 | 8.0 | 14.5 | 0.00 | 0.00 | 0.00 | 20 | 1023.1 |
| 20260502191817 | 18 | 86 | 11.3 | 17.7 | 0.00 | 0.00 | 0.00 | 21 | 1023.3 |
| 20260502190817 | 18 | 92 | 14.5 | 17.7 | 0.00 | 0.00 | 0.00 | 22 | 1023.4 |
| 20260502185816 | 19 | 141 | 8.0 | 17.7 | 0.00 | 0.00 | 0.00 | 21 | 1023.5 |
| 20260502184816 | 18 | 105 | 4.8 | 16.1 | 0.00 | 0.00 | 0.00 | 21 | 1023.7 |
| 20260502183816 | 18 | 100 | 4.8 | 14.5 | 0.00 | 0.00 | 0.00 | 21 | 1023.4 |
| 20260502182817 | 18 | 132 | 6.4 | 16.1 | 0.00 | 0.00 | 0.00 | 25 | 1024.5 |
| 20260502181816 | 17 | 122 | 4.8 | 12.9 | 0.00 | 0.00 | 0.00 | 29 | 1024.6 |
| 20260502180816 | 17 | 101 | 6.4 | 14.5 | 0.00 | 0.00 | 0.00 | 31 | 1024.4 |
| 20260502163816 | 15 | 86 | 1.6 | 6.4 | 0.00 | 0.00 | 0.00 | 38 | 1024.9 |
| 20260502162837 | 15 | 105 | 0.0 | 6.4 | 0.00 | 0.00 | 0.00 | 37 | 1025.0 |
| 20260502161816 | 13 | 138 | 0.0 | 3.2 | 0.00 | 0.00 | 0.00 | 43 | 1024.7 |
| 20260502160816 | 13 | 104 | 3.2 | 4.8 | 0.00 | 0.00 | 0.00 | 45 | 1024.7 |
| 20260502151816 | 12 | 115 | 3.2 | 6.4 | 0.00 | 0.00 | 0.00 | 48 | 1024.6 |
| 20260502150816 | 12 | 106 | 3.2 | 6.4 | 0.00 | 0.00 | 0.00 | 44 | 1024.3 |
| 20260502123816 | 6 | 329 | 6.4 | 8.0 | 0.00 | 0.00 | 0.00 | 56 | 1022.7 |
| 20260502122816 | 6 | 329 | 6.4 | 8.0 | 0.00 | 0.00 | 0.00 | 54 | 1022.7 |
| 20260502121816 | 7 | 329 | 0.0 | 3.2 | 0.00 | 0.00 | 0.00 | 54 | 1023.0 |
| 20260502120816 | 7 | 329 | 4.8 | 6.4 | 0.00 | 0.00 | 0.00 | 53 | 1022.9 |
| 20260502115816 | 6 | 329 | 4.8 | 6.4 | 0.00 | 0.00 | 0.00 | 51 | 1022.6 |
| 20260502114816 | 6 | 329 | 4.8 | 6.4 | 0.00 | 0.00 | 0.00 | 50 | 1022.6 |
| 20260502113815 | 6 | 329 | 4.8 | 8.0 | 0.00 | 0.00 | 0.00 | 51 | 1022.6 |
| 20260502112816 | 7 | 329 | 8.0 | 9.7 | 0.00 | 0.00 | 0.00 | 49 | 1022.9 |
| 20260502111816 | 7 | 349 | 6.4 | 8.0 | 0.00 | 0.00 | 0.00 | 49 | 1022.8 |
| 20260502110815 | 7 | 349 | 6.4 | 8.0 | 0.00 | 0.00 | 0.00 | 50 | 1022.9 |
| 20260502105815 | 7 | 349 | 6.4 | 8.0 | 0.00 | 0.00 | 0.00 | 50 | 1023.0 |
| 20260502104816 | 7 | 349 | 6.4 | 8.0 | 0.00 | 0.00 | 0.00 | 49 | 1022.9 |
| 20260502103836 | 7 | 349 | 6.4 | 8.0 | 0.00 | 0.00 | 0.00 | 50 | 1022.6 |
| 20260502102815 | 7 | 316 | 4.8 | 6.4 | 0.00 | 0.00 | 0.00 | 46 | 1022.9 |
| 20260502101815 | 8 | 316 | 3.2 | 4.8 | 0.00 | 0.00 | 0.00 | 44 | 1023.2 |
| 20260502100815 | 9 | 316 | 0.0 | 1.6 | 0.00 | 0.00 | 0.00 | 42 | 1023.5 |
| 20260502090815 | 8 | 309 | 3.2 | 6.4 | 0.00 | 0.00 | 0.00 | 45 | 1022.8 |
| 20260502070816 | 10 | 34 | 3.2 | 4.8 | 0.00 | 0.00 | 0.00 | 39 | 1023.1 |
| 20260502065835 | 10 | 0.0 | 1.6 | 0.00 | 0.00 | 0.00 | 39 | 1022.8 | |
| 20260502064815 | 10 | 247 | 6.4 | 11.3 | 0.00 | 0.00 | 0.00 | 40 | 1022.8 |
| 20260502063815 | 10 | 343 | 6.4 | 8.0 | 0.00 | 0.00 | 0.00 | 40 | 1022.5 |
| 20260502062836 | 10 | 350 | 1.6 | 4.8 | 0.00 | 0.00 | 0.00 | 41 | 1022.3 |
| 20260502061815 | 10 | 355 | 6.4 | 8.0 | 0.00 | 0.00 | 0.00 | 39 | 1022.6 |
| 20260502060815 | 11 | 153 | 1.6 | 1.6 | 0.00 | 0.00 | 0.00 | 37 | 1022.5 |
| 20260502055816 | 12 | 346 | 3.2 | 4.8 | 0.00 | 0.00 | 0.00 | 35 | 1022.6 |
| 20260502054816 | 12 | 277 | 4.8 | 6.4 | 0.00 | 0.00 | 0.00 | 34 | 1022.6 |
| 20260502053836 | 13 | 253 | 8.0 | 12.9 | 0.00 | 0.00 | 0.00 | 31 | 1022.8 |
| 20260502052816 | 13 | 186 | 4.8 | 14.5 | 0.00 | 0.00 | 0.00 | 30 | 1022.9 |
| 20260502051816 | 14 | 9 | 6.4 | 20.9 | 0.00 | 0.00 | 0.00 | 29 | 1022.8 |
| 20260502050816 | 13 | 359 | 9.7 | 22.5 | 0.00 | 0.00 | 0.00 | 29 | 1022.8 |
| 20260502045816 | 13 | 17 | 6.4 | 12.9 | 0.00 | 0.00 | 0.00 | 30 | 1022.4 |
| 20260502044816 | 14 | 349 | 11.3 | 24.1 | 0.00 | 0.00 | 0.00 | 30 | 1022.7 |
| 20260502043856 | 14 | 10 | 14.5 | 32.2 | 0.00 | 0.00 | 0.00 | 30 | 1022.8 |
| 20260502042816 | 14 | 360 | 16.1 | 29.0 | 0.00 | 0.00 | 0.00 | 30 | 1022.4 |
| 20260502041816 | 14 | 7 | 12.9 | 27.4 | 0.00 | 0.00 | 0.00 | 30 | 1022.3 |
| 20260502040816 | 14 | 337 | 9.7 | 24.1 | 0.00 | 0.00 | 0.00 | 31 | 1022.2 |
| 20260502035816 | 14 | 26 | 14.5 | 29.0 | 0.00 | 0.00 | 0.00 | 31 | 1022.0 |
| 20260502034816 | 14 | 22 | 16.1 | 33.8 | 0.00 | 0.00 | 0.00 | 31 | 1022.1 |
| 20260502033836 | 14 | 3 | 19.3 | 30.6 | 0.00 | 0.00 | 0.00 | 30 | 1021.9 |
| 20260502032816 | 14 | 328 | 22.5 | 38.6 | 0.00 | 0.00 | 0.00 | 31 | 1021.5 |
| 20260502031816 | 14 | 317 | 19.3 | 33.8 | 0.00 | 0.00 | 0.00 | 31 | 1021.3 |
| 20260502030816 | 14 | 310 | 12.9 | 29.0 | 0.00 | 0.00 | 0.00 | 31 | 1021.2 |
| 20260502025816 | 14 | 278 | 8.0 | 14.5 | 0.00 | 0.00 | 0.00 | 31 | 1020.8 |
| 20260502024816 | 14 | 347 | 17.7 | 33.8 | 0.00 | 0.00 | 0.00 | 31 | 1020.6 |
| 20260502023816 | 14 | 7 | 8.0 | 25.7 | 0.00 | 0.00 | 0.00 | 31 | 1020.7 |
| 20260502022817 | 14 | 33 | 11.3 | 29.0 | 0.00 | 0.00 | 0.00 | 31 | 1020.7 |
| 20260502021815 | 15 | 52 | 11.3 | 25.7 | 0.00 | 0.00 | 0.00 | 31 | 1020.7 |
| 20260502020816 | 15 | 348 | 19.3 | 33.8 | 0.00 | 0.00 | 0.00 | 31 | 1020.6 |
| 20260502015816 | 15 | 357 | 16.1 | 25.7 | 0.00 | 0.00 | 0.00 | 30 | 1020.3 |
| 20260502014816 | 15 | 357 | 11.3 | 20.9 | 0.00 | 0.00 | 0.00 | 30 | 1020.2 |
| 20260502013816 | 16 | 334 | 8.0 | 16.1 | 0.00 | 0.00 | 0.00 | 28 | 1020.6 |
| 20260502012816 | 16 | 270 | 3.2 | 9.7 | 0.00 | 0.00 | 0.00 | 28 | 1020.5 |
| 20260502011816 | 16 | 350 | 3.2 | 9.7 | 0.00 | 0.00 | 0.00 | 27 | 1020.6 |
| 20260502010816 | 16 | 302 | 3.2 | 16.1 | 0.00 | 0.00 | 0.00 | 27 | 1020.6 |
| 20260502005815 | 16 | 28 | 9.7 | 27.4 | 0.00 | 0.00 | 0.00 | 27 | 1020.4 |
| 20260502004815 | 16 | 18 | 6.4 | 14.5 | 0.00 | 0.00 | 0.00 | 26 | 1020.3 |
| 20260502003836 | 16 | 359 | 17.7 | 24.1 | 0.00 | 0.00 | 0.00 | 26 | 1020.3 |
| 20260502002816 | 16 | 19 | 11.3 | 22.5 | 0.00 | 0.00 | 0.00 | 27 | 1020.4 |
| 20260502001836 | 16 | 20 | 14.5 | 30.6 | 0.00 | 0.00 | 0.00 | 26 | 1020.5 |
| 20260502000816 | 16 | 352 | 20.9 | 38.6 | 0.00 | 0.00 | 0.00 | 26 | 1020.6 |
| 20260501235815 | 17 | 9 | 16.1 | 24.1 | 0.00 | 0.00 | 0.00 | 25 | 1020.6 |
| 20260501234815 | 17 | 35 | 11.3 | 24.1 | 0.00 | 0.00 | 0.00 | 25 | 1020.6 |
| 20260501233816 | 17 | 3 | 12.9 | 22.5 | 0.00 | 0.00 | 0.00 | 26 | 1020.6 |
| 20260501232836 | 17 | 354 | 19.3 | 24.1 | 0.00 | 0.00 | 0.00 | 25 | 1020.5 |
| 20260501231815 | 17 | 326 | 19.3 | 27.4 | 0.00 | 0.00 | 0.00 | 25 | 1020.6 |
| 20260501230816 | 17 | 41 | 14.5 | 25.7 | 0.00 | 0.00 | 0.00 | 25 | 1020.7 |
| 20260501225815 | 17 | 39 | 9.7 | 17.7 | 0.00 | 0.00 | 0.00 | 25 | 1020.7 |
| 20260501224815 | 17 | 49 | 14.5 | 19.3 | 0.00 | 0.00 | 0.00 | 26 | 1021.0 |
| 20260501223835 | 17 | 286 | 14.5 | 22.5 | 0.00 | 0.00 | 0.00 | 26 | 1021.2 |
| 20260501222816 | 17 | 330 | 16.1 | 29.0 | 0.00 | 0.00 | 0.00 | 26 | 1021.0 |
| 20260501221815 | 17 | 22 | 6.4 | 14.5 | 0.00 | 0.00 | 0.00 | 24 | 1021.1 |
| 20260501220856 | 17 | 340 | 14.5 | 25.7 | 0.00 | 0.00 | 0.00 | 25 | 1021.1 |
| 20260501215815 | 17 | 50 | 19.3 | 25.7 | 0.00 | 0.00 | 0.00 | 25 | 1021.1 |
| 20260501214815 | 17 | 51 | 14.5 | 22.5 | 0.00 | 0.00 | 0.00 | 24 | 1021.3 |
| 20260501213815 | 17 | 44 | 17.7 | 24.1 | 0.00 | 0.00 | 0.00 | 24 | 1021.4 |
| 20260501212815 | 17 | 153 | 9.7 | 17.7 | 0.00 | 0.00 | 0.00 | 22 | 1021.7 |
| 20260501211815 | 17 | 181 | 6.4 | 14.5 | 0.00 | 0.00 | 0.00 | 22 | 1021.9 |
| 20260501210835 | 16 | 220 | 6.4 | 12.9 | 0.00 | 0.00 | 0.00 | 21 | 1021.7 |
| 20260501205815 | 16 | 99 | 3.2 | 8.0 | 0.00 | 0.00 | 0.00 | 21 | 1021.5 |
| 20260501204815 | 17 | 145 | 4.8 | 11.3 | 0.00 | 0.00 | 0.00 | 21 | 1021.8 |
| 20260501203835 | 16 | 151 | 3.2 | 6.4 | 0.00 | 0.00 | 0.00 | 23 | 1021.6 |